Regional Weather Roundup
Issued by NWS Midland/Odessa, TX

Home | Current Version | Previous Version | Text Only | Print | Product List | Glossary On
Versions: 1 2 3 4 5 6 7 8 9 10 11 12 13 14 15 16 17 18 19 20 21 22 23 24 25 26 27 28 29 30 31 32 33 34 35 36 37 38 39 40 41 42 43 44 45 46 47 48 49 50
000
ASUS44 KMAF 070610
RWRMAF
MIDLAND AREA WEATHER ROUNDUP
NATIONAL WEATHER SERVICE MIDLAND TX
100 AM CDT THU MAY 07 2015

...IN SOUTHWEST TEXAS AND SOUTHEAST NEW MEXICO...

CITY           SKY/WX    TMP DP  RH WIND       PRES   REMARKS
ALPINE         PTCLDY    63  56  79 CALM      29.93S
ANDREWS        FAIR      67  62  84 S12G21    29.83F
ARTESIA        PTCLDY    66  48  52 S9        29.83S
BIG SPRING     CLEAR     72  65  79 S13       29.84S
CARLSBAD       MOCLDY    70  61  73 S14       29.82R
DRYDEN           N/A     71  66  84 E15       29.80F
FORT STOCKTON  CLEAR     68  62  81 SE24G33   29.79F
GUAD PASS      CLOUDY    63  37  38 NE18      29.93F
HOBBS          CLEAR     64  64 100 S8        29.85S
MARFA          PTCLDY    55  46  71 NW3       29.92R
MIDLAND AIRPK  CLEAR     70  64  79 S14G23    29.83S
MIDLAND INTL   CLEAR     70  63  78 S15       29.82F
ODESSA         CLEAR     69  62  78 S16       29.83F
PECOS          CLEAR     70  60  70 SE17G23   29.77S
PRESIDIO       FAIR      74  57  55 MISG      29.74S
SEMINOLE       CLEAR     64  58  80 S10       29.84S
SNYDER         CLEAR     69  63  80 S10       29.84R
WINK           CLEAR     71  61  70 SE16G28   29.78F
$$
...OTHER STATIONS IN TEXAS...

CITY           SKY/WX    TMP DP  RH WIND       PRES   REMARKS
ABILENE        PTCLDY    73  64  73 S13       29.84S
AMARILLO       CLEAR     57  49  74 S6        29.83R
AUSTIN         MOCLDY    72  70  93 SE9       29.89S
BROWNSVILLE    CLOUDY    79  75  87 SE9       29.87F
CORPUS CHRISTI CLOUDY    77  73  87 SE13      29.87F
DALLAS FTW     CLOUDY    73  69  87 SE17G25   29.87F
DEL RIO        CLOUDY    75  69  81 SE12      29.81S
EL PASO        MOCLDY    76  19  11 W13       29.84R
HOUSTON INT    MOCLDY    74  71  91 SE9       29.94F
LUBBOCK        CLEAR     68  61  78 S16       29.82S
SAN ANGELO     CLEAR     73  65  75 S14G22    29.82R
SAN ANTONIO    CLOUDY    74  69  85 SE14      29.89S
WACO           MOCLDY    73  68  84 S20       29.90R
WICHITA FALLS  NOT AVBL
$$
...OTHER LOCATIONS IN NEW MEXICO...

CITY           SKY/WX    TMP DP  RH WIND       PRES   REMARKS
ALAMAGORDO     PTCLDY    57  28  33 E5        29.85S
ALBUQUERQUE    MOCLDY    57  44  62 SE3       29.91S
CANNON AFB     CLEAR     59  43  56 SW7       29.83S
CLOVIS         CLEAR     57  43  58 S13       29.84R
HOLLOMAN AFB   PTCLDY    59  32  36 E7        29.83S
ROSWELL        CLEAR     56  46  69 SW6       29.79S
RUIDOSO        CLEAR     54  19  26 NE5       29.99S
SANTA FE       MOCLDY    49  38  65 NE9       29.93F
TRUTH OR CONSE CLEAR     58  18  21 W8        29.86S
TUCUMCARI      CLEAR     57  45  64 CALM      29.80R
$$


USA.gov is the U.S. government's official web portal to all federal, state and local government web resources and services.